Location: Banff
(51.1667°N, 115.5667°W)
Time: 06:25:44
(UTC+00:00)

S-56A Canister/Altair - Pass Details

Date: 28 November 2020
Orbit: 633 x 2499 km, 38.9° (Epoch: 21 January)

Event Time Altitude Azimuth Distance (km) Brightness Sun altitude
Rises 06:16:42 0° 256° (WSW) 4,715 11.7 -56.9°
Enters shadow 06:17:09 - 255° (WSW) 4,567 11.6 -57.0°
Reaches altitude 10° 06:20:44 10° 247° (WSW) 3,393 - -57.3°
Maximum altitude 06:27:20 28° 192° (SSW) 1,813 - -57.8°
Drops below altitude 10° 06:32:13 10° 134° (SE) 2,451 - -58.1°
Sets 06:34:39 0° 122° (ESE) 3,217 - -58.3°
